Regional Weather Roundup
Issued by NWS

Home | Current Version | Previous Version | Text Only | Print | Product List | Glossary Off
Versions: 1 2 3 4 5 6 7 8 9 10 11 12 13 14 15 16 17 18 19 20 21 22 23 24 25 26 27 28 29 30 31 32 33 34 35 36 37 38 39 40 41 42 43 44 45 46 47 48 49 50

000
ASUS43 KLOT 180408
RWRIL

ILLINOIS REGIONAL WEATHER ROUNDUP
NATIONAL WEATHER SERVICE CHICAGO/ROMEOVILLE IL
1000 PM CST SAT FEB 17 2018

NOTE: "FAIR" INDICATES FEW OR NO CLOUDS BELOW 12,000 FEET WITH NO
SIGNIFICANT WEATHER AND/OR OBSTRUCTIONS TO VISIBILITY.

* THESE STATIONS ARE NOT UNDER NWS QUALITY CONTROL. THEY ALSO MAY NOT
  REPORT WEATHER SUCH AS PRECIPITATION OR FOG.

ILZ001-002-007-009-015-016-024-180500-
NORTHWEST ILLINOIS

CITY           SKY/WX    TMP DP  RH WIND       PRES   REMARKS
MOLINE         FAIR      18  16  92 SW5       30.16R FOG     WCI  11
STERLING*      FAIR      20  18  92 W7        30.15R WCI  11
SAVANNA*       FAIR      19  17  91 SW3       30.14S
$$

ILZ003-004-008-010-011-017-018-180500-
NORTH CENTRAL ILLINOIS

CITY           SKY/WX    TMP DP  RH WIND       PRES   REMARKS
ROCKFORD       CLOUDY    26  21  81 SW6       30.15R WCI  19
FREEPORT*      CLOUDY    25  22  87 W7        30.14R WCI  18
ROCHELLE*      MOCLDY    21  19  94 W9        30.14S WCI  10
DE KALB*       FAIR      25  22  87 W12       30.13R WCI  14
PERU*          FAIR      21  18  87 W7        30.15S WCI  12
$$

ILZ005-006-012>014-019>023-180500-
NORTHEAST ILLINOIS

CITY           SKY/WX    TMP DP  RH WIND       PRES   REMARKS
CHICAGO-OHARE  MOCLDY    29  23  78 W10       30.10R WCI  20
CHICAGO-MIDWAY CLOUDY    30  25  81 W14       30.12R WCI  19
AURORA         CLOUDY    28  23  81 W13       30.13R WCI  17
LANSING*       CLOUDY    30  27  88 W13G20    30.13R WCI  20
JOLIET*        CLOUDY    31  27  85 W6        30.15R WCI  25
WAUKEGAN       FAIR      28  22  78 W9G17     30.07R WCI  19
DUPAGE AIRPORT CLOUDY    28  25  88 W10       30.11R WCI  19
KANKAKEE*      CLOUDY    30  24  79 NW15G23   30.15R WCI  19
WHEELING       MOCLDY    29  24  82 W8        30.11R WCI  21
MORRIS*        MOCLDY    27  23  85 NW10      30.14R WCI  17
ROMEOVILLE*    CLOUDY    29  25  86 W16       30.14R WCI  17
NORTHERLY ISL    N/A     29  24  82 W16         N/A  WCI  17
$$

LMZ740>746-180500-
SOUTHERN LAKE MICHIGAN

STATION/POSITION SKY/WX   TEMP    WIND        PRES    VSBY  WAVE
                          AIR SEA DIR/SP/G                  HT/PER
                          (F)     (DEG/KT/KT) (MB)    (MI)  (FT/S)
HARRISON CRIB              31     290/ 19/ 22   N/A
BURNHAM HARBOR             29     280/ 10/ 18   N/A
CALUMET HARBOR             30     250/  5/ 11 1018.7R
BURNS HARBOR               31     290/ 18/ 23 1019.3R
MICHIGAN CITY              30     270/ 21/ 24   N/A
$$

ILZ025>027-034>036-040-047-049-050-058-095>099-180500-
WEST-CENTRAL ILLINOIS

CITY           SKY/WX    TMP DP  RH WIND       PRES   REMARKS
QUINCY         CLEAR     31  26  82 CALM      30.20R
GALESBURG*     FAIR      20  20 100 SW3       30.18R
MACOMB*        CLEAR     28  26  94 W6        30.21S WCI  21
JACKSONVILLE*  CLEAR     31  28  86 CALM      30.21R
PITTSFIELD*    CLEAR     30  27  88 CALM      30.23R
$$

ILZ028>032-037-038-041>044-048-051>054-059>061-180500-
CENTRAL ILLINOIS

CITY           SKY/WX    TMP DP  RH WIND       PRES   REMARKS
PONTIAC        FAIR      25  25  98 W8        30.17R WCI  17
BLOOMINGTON    FAIR      25  22  88 W9        30.18R WCI  15
DECATUR        FAIR      31  27  85 NW7       30.21R WCI  24
PEORIA         FAIR      23  21  92 SW6       30.19R WCI  16
LACON*         FAIR      24  21  89 CALM      30.16S
LINCOLN*       FAIR      31  28  88 W3        30.21R
SPRINGFIELD    FAIR      32  30  92 CALM      30.22R
TAYLORVILLE    FAIR      32  31  96 W3        30.23R
$$

ILZ033-039-045-046-055>057-062-063-180500-
EAST-CENTRAL ILLINOIS

CITY           SKY/WX    TMP DP  RH WIND       PRES   REMARKS
CHAMPAIGN      FAIR      30  27  88 W13       30.19R WCI  20
DANVILLE*      FAIR      30  26  86 NW14      30.14R WCI  19
RANTOUL*       FAIR      31  28  88 W12       30.18R WCI  22
MATTOON        FAIR      32  30  92 W9        30.21R WCI  24
PARIS*         FAIR      32  30  93 W10       30.21R WCI  24
$$

ILZ079-100>102-180500-
SOUTHWEST ILLINOIS

CITY           SKY/WX    TMP DP  RH WIND       PRES   REMARKS
ALTON          CLEAR     34  30  86 NW5       30.24R WCI  30
BELLEVILLE     FAIR      31  29  94 W3        30.22R
CAHOKIA*       FAIR      29  27  92 SE5       30.23R FOG     WCI  24
SPARTA*        FAIR      36  36 100 CALM      30.24S
$$

ILZ064>066-069>071-074>076-080>082-084>086-088>090-092>094-180500-
SOUTH-CENTRAL ILLINOIS

CITY           SKY/WX    TMP DP  RH WIND       PRES   REMARKS
CARBONDALE     FOG       31  31 100 CALM      30.24S VSB 1/4
CAIRO*         FOG       34  34 100 CALM      30.26R VSB 1/2
EFFINGHAM*     FAIR      32  32 100 W5        30.24R WCI  27
MARION         FAIR      32  32  99 CALM      30.25R FOG
MT. VERNON     FAIR      29  28  96 CALM      30.25R FOG
CENTRALIA*     FAIR      32  32 100 SW6       30.23R FOG     WCI  26
SALEM*         FAIR      34  32  93 W5        30.23R WCI  30
METROPOLIS*    FOG       35  34  97 CALM      30.27R VSB 1
$$

ILZ067-068-072-073-078-083-087-091-180500-
SOUTHEAST ILLINOIS

CITY           SKY/WX    TMP DP  RH WIND       PRES   REMARKS
LAWRENCEVILLE  FAIR      35  32  88 NW6       30.22R WCI  30
FLORA*         FAIR      35  33  92 W7        30.24R WCI  29
FAIRFIELD*     FAIR      33  33  99 CALM      30.23R
HARRISBURG*    FAIR      35  35 100 CALM      30.25R FOG
ROBINSON*      FAIR      31  30  96 W6        30.23R WCI  25
CARMI*         FAIR      33  33  99 SW3       30.24R
$$

ABBREVIATIONS USED IN REMARKS
   TC - TEMPERATURE IN CELSIUS
  WCI - WIND CHILL INDEX
   HX - HEAT INDEX
  VSB - VISIBILITY
$$




USA.gov is the U.S. government's official web portal to all federal, state and local government web resources and services.